Temp
59 62 63 63 56 51 43 47 56 54 55 60 62 60 56 55 56 50 66 68 67 66 67 69 72 73 74 74 75 75 75 76 76 75 75 75 75 75 75 74 74 74 76 77 76 77 77 75 74
61 67 64 56 47 41 45 52 53 54 59 62 62 61 57 55 61 61 64 70 68 66 67 68 72 73 73 73 73 74 75 75 75 75 75 75 75 75 74 73 72 71 75 76 76 76 76 75 72
62 65 59 49 41 41 44 52 53 57 60 62 59 62 59 56 63 64 67 69 67 66 66 68 71 71 72 73 73 73 73 73 73 73 74 74 74 74 73 72 70 73 74 75 75 75 74 72 71
64 62 57 51 42 47 50 54 57 58 61 64 60 57 62 65 66 68 68 68 64 63 64 68 70 71 72 72 73 72 72 72 72 72 73 73 73 72 71 70 70 72 74 74 73 73 72 70 69
60 55 48 44 45 52 55 60 59 58 58 59 60 54 57 63 66 67 66 67 63 62 64 65 68 71 72 73 72 71 71 71 71 71 72 72 72 72 71 71 71 71 71 72 72 72 70 69 69
58 54 44 41 46 54 57 58 60 59 59 59 58 56 55 62 64 65 66 63 65 63 64 66 70 71 71 71 71 70 70 70 70 70 71 71 70 70 70 70 70 70 70 70 70 69 69 68 68
54 49 42 43 46 52 56 58 55 57 57 56 60 53 56 61 65 66 65 63 64 64 64 64 65 68 69 68 68 68 69 69 69 69 69 69 68 68 69 69 69 69 69 69 69 68 67 67 67
54 53 43 42 47 47 55 57 56 57 54 60 59 53 54 62 66 65 65 63 62 63 64 63 63 64 63 63 67 67 68 68 68 68 67 67 67 67 67 67 68 68 67 67 67 66 65 65 64
54 49 43 44 47 49 55 52 55 59 59 58 59 59 60 66 64 62 61 61 61 64 63 63 63 63 63 62 66 67 68 68 67 67 66 63 62 62 62 66 67 67 66 66 66 65 64 62 62
53 47 46 54 53 49 52 53 57 57 54 55 56 58 61 64 62 61 60 60 60 61 62 62 62 62 62 67 63 62 64 63 63 63 62 61 60 60 62 64 66 66 65 65 64 63 62 58 55
50 50 53 55 55 54 54 56 57 56 50 59 60 58 60 60 60 61 61 61 61 62 61 62 62 61 61 62 60 60 60 61 61 61 61 61 60 59 59 58 58 57 61 55 56 55 54 54 53
56 56 56 56 58 57 53 54 55 52 60 66 62 62 60 60 60 60 60 61 60 60 61 61 60 60 60 60 60 60 60 60 60 60 60 59 58 58 57 57 57 56 55 54 53 53 54 54 54
57 56 59 59 62 58 59 55 56 59 63 61 61 61 61 61 60 60 62 60 59 59 60 59 59 59 59 59 59 59 59 60 59 59 59 58 57 56 56 56 55 55 54 54 53 53 53 53 53
57 56 56 58 57 57 56 55 55 60 58 59 60 58 58 60 61 58 59 60 59 59 59 59 58 58 58 57 57 57 57 57 57 57 57 58 57 56 55 55 54 53 54 53 52 51 50 50 51
58 56 57 59 56 55 53 53 54 59 57 59 58 58 58 59 59 61 62 60 61 59 59 58 58 58 57 57 57 56 56 57 55 56 56 57 57 55 55 54 53 53 53 52 51 50 48 47 49
53 51 46 56 57 55 55 48 59 56 54 58 57 56 58 59 60 58 59 59 58 58 59 58 62 58 57 56 56 56 55 54 54 54 54 55 56 55 54 53 52 53 52 51 49 48 47 47 47
47 40 42 50 53 53 53 49 57 58 56 57 55 54 55 56 58 57 59 58 57 58 58 57 57 57 57 55 54 54 54 53 53 52 53 54 54 55 52 52 52 51 50 49 48 47 47 46 46
40 41 44 42 52 52 46 48 52 54 53 53 52 52 52 53 57 59 60 58 58 57 57 57 57 57 56 53 52 52 51 52 51 52 52 53 53 54 52 51 51 50 48 48 46 47 46 47 47
47 43 41 44 50 49 45 45 50 51 51 50 49 50 51 54 53 52 54 55 55 55 56 57 56 56 53 51 51 51 52 52 52 52 53 53 54 53 52 52 50 50 49 50 48 46 46 45 44
47 43 43 48 50 47 47 46 49 52 49 49 49 50 51 51 52 54 52 52 54 55 56 56 57 56 54 53 51 51 50 51 51 52 52 52 52 53 53 52 52 50 50 47 47 46 44 45 44
46 43 42 44 48 46 45 45 48 52 53 54 53 52 53 53 54 54 54 52 53 55 55 57 56 57 55 54 53 52 51 51 50 52 51 53 53 54 52 53 53 51 51 51 50 48 46 46 43
42 49 48 46 42 38 44 36 44 47 49 51 53 52 52 54 54 54 55 53 53 54 54 54 55 56 57 54 52 50 49 49 52 51 51 55 52 52 53 53 52 52 51 51 48 47 45 44 42
48 49 45 44 40 37 42 37 43 46 46 49 51 52 51 54 53 55 55 56 53 52 51 52 53 53 53 52 51 50 49 48 50 50 49 51 50 49 51 52 52 50 48 49 48 45 45 45 43
53 46 45 42 39 32 37 37 38 41 44 48 50 53 55 54 53 54 54 54 52 50 50 50 52 53 53 52 52 50 47 47 48 49 47 48 46 45 45 46 45 44 43 42 44 45 45 43 44
48 39 30 30 29 30 41 37 39 47 50 50 51 52 50 49 49 49 49 49 50 52 51 52 51 52 54 54 53 49 47 46 46 47 47 46 44 40 39 41 41 42 42 42 42 43 42 43 42
43 40 28 26 25 29 39 33 41 50 52 54 53 49 48 47 48 48 48 48 52 52 50 50 52 52 52 50 48 47 47 48 48 47 45 42 40 38 40 41 41 41 41 41 42 43 42 42 42
43 37 42 33 31 27 32 38 45 47 48 49 47 48 46 46 47 47 48 49 51 52 52 49 48 49 49 47 46 46 45 46 47 45 41 39 39 41 40 40 40 41 43 44 43 41 41 41 40
47 48 35 31 21 25 31 33 36 42 44 46 45 44 46 47 48 49 50 51 51 49 48 48 47 47 47 46 45 47 45 44 43 41 40 38 39 40 40 40 41 41 43 43 42 41 41 40 40
42 39 38 38 32 23 23 30 42 42 44 43 43 45 45 46 48 48 49 49 49 48 48 47 46 46 45 44 44 43 45 44 41 39 39 38 40 40 41 42 43 43 43 41 39 40 41 40 39
43 40 39 28 30 29 27 30 45 46 45 44 44 46 46 48 48 48 48 48 47 48 48 47 46 45 44 43 43 42 41 40 39 38 39 40 42 43 43 44 43 42 40 40 38 37 37 36 36
MSLP
1011.36 1011.53 1011.48 1012.01 1013.48 1014.54 1015.22 1015.32 1014.76 1014.60 1014.84 1014.73 1014.67 1015.07 1015.88 1016.33 1016.47 1017.05 1016.65 1016.78 1017.05 1017.23 1017.22 1017.31 1017.28 1017.02 1017.28 1017.01 1016.81 1016.64 1017.01 1016.63 1016.83 1017.18 1017.56 1017.80 1017.64 1017.84 1018.37 1018.04 1018.07 1018.15 1018.19 1018.05 1018.24 1018.12 1018.11 1018.30 1018.41
1011.23 1011.44 1012.11 1013.20 1014.52 1015.44 1015.48 1015.07 1014.64 1014.52 1014.93 1014.87 1014.84 1015.22 1015.87 1016.60 1016.69 1016.84 1016.90 1017.26 1017.32 1017.51 1017.72 1017.72 1017.49 1017.43 1017.23 1017.16 1017.10 1016.78 1016.95 1017.23 1017.18 1017.40 1017.75 1017.84 1017.97 1018.25 1018.39 1018.29 1018.28 1018.56 1018.30 1018.34 1018.25 1018.30 1018.17 1018.33 1018.71
1011.34 1011.71 1012.94 1014.37 1015.72 1015.51 1015.10 1014.82 1014.91 1014.77 1014.88 1015.02 1015.29 1015.52 1015.91 1016.61 1016.52 1016.60 1016.60 1017.08 1017.20 1017.49 1017.67 1017.82 1017.47 1017.73 1017.18 1017.37 1017.34 1017.32 1017.16 1017.57 1017.51 1017.75 1017.89 1018.18 1018.15 1018.28 1018.52 1018.44 1018.74 1018.56 1018.46 1018.36 1018.28 1018.22 1018.41 1018.64 1018.78
1011.81 1012.62 1014.14 1014.68 1015.64 1015.13 1014.76 1014.93 1014.94 1015.06 1014.93 1015.02 1015.53 1016.09 1016.35 1016.33 1016.39 1016.51 1016.75 1016.88 1017.49 1017.84 1017.81 1017.74 1017.62 1017.56 1017.45 1017.40 1017.43 1017.66 1017.61 1017.43 1017.80 1018.19 1018.13 1018.28 1018.43 1018.50 1018.76 1018.67 1018.60 1018.50 1018.57 1018.48 1018.46 1018.56 1018.62 1018.86 1019.05
1012.39 1013.55 1014.87 1015.45 1015.41 1015.01 1014.54 1014.58 1014.76 1015.07 1015.17 1015.48 1015.63 1016.27 1016.62 1016.61 1016.35 1016.61 1017.01 1017.38 1017.70 1017.78 1017.80 1017.89 1017.68 1017.57 1017.52 1017.69 1017.64 1017.76 1017.96 1017.93 1018.45 1018.32 1018.15 1018.28 1018.37 1018.55 1018.60 1018.62 1018.68 1018.71 1018.64 1018.71 1018.72 1018.82 1018.98 1019.11 1019.29
1013.09 1014.27 1015.80 1016.18 1015.40 1014.70 1014.39 1014.56 1014.71 1014.94 1015.10 1015.78 1016.05 1016.22 1016.88 1016.88 1016.73 1016.95 1017.28 1017.60 1017.73 1017.83 1017.59 1017.59 1017.80 1017.74 1017.88 1018.11 1017.95 1018.47 1018.25 1018.66 1018.73 1018.73 1018.73 1018.67 1018.70 1018.79 1018.77 1018.68 1018.62 1018.73 1018.85 1018.94 1019.01 1019.14 1019.24 1019.40 1019.54
1013.39 1014.90 1016.03 1016.08 1015.35 1014.76 1014.49 1014.40 1014.62 1014.58 1015.09 1015.54 1015.80 1016.40 1016.90 1017.04 1016.92 1017.10 1017.54 1017.80 1017.92 1017.88 1017.65 1017.75 1017.93 1018.06 1018.24 1018.06 1018.17 1018.25 1018.44 1018.57 1018.82 1018.95 1019.07 1019.13 1019.22 1019.30 1019.28 1019.24 1019.18 1019.10 1019.07 1019.07 1019.08 1019.20 1019.35 1019.53 1019.56
1013.40 1014.92 1015.87 1015.74 1015.25 1014.98 1014.36 1014.28 1014.25 1014.44 1015.09 1015.66 1015.66 1016.29 1016.87 1016.64 1016.82 1017.13 1017.72 1018.16 1018.40 1017.85 1017.80 1018.04 1018.16 1018.29 1018.19 1018.30 1018.21 1018.45 1018.63 1018.78 1018.94 1019.03 1019.18 1019.27 1019.37 1019.37 1019.35 1019.36 1019.40 1019.47 1019.56 1019.60 1019.59 1019.56 1019.54 1019.59 1019.66
1013.25 1014.87 1015.85 1015.47 1014.92 1014.66 1014.33 1014.25 1014.14 1014.38 1014.99 1015.33 1015.74 1015.75 1015.77 1015.84 1016.82 1017.31 1017.96 1018.22 1018.12 1018.20 1018.11 1018.20 1018.17 1018.18 1018.30 1018.29 1018.30 1018.42 1018.68 1018.83 1019.04 1019.18 1019.30 1019.47 1019.57 1019.58 1019.61 1019.56 1019.52 1019.54 1019.62 1019.56 1019.55 1019.57 1019.61 1019.67 1019.77
1013.76 1014.95 1015.14 1014.73 1014.54 1014.32 1014.14 1014.24 1014.32 1014.58 1014.95 1014.94 1015.23 1015.56 1015.96 1016.14 1016.94 1017.39 1017.86 1018.05 1018.16 1018.26 1018.23 1018.09 1018.10 1018.12 1018.28 1018.19 1018.34 1018.55 1018.77 1018.87 1019.11 1019.32 1019.47 1019.58 1019.66 1019.73 1019.79 1019.81 1019.76 1019.72 1019.69 1019.70 1019.73 1019.69 1019.66 1019.68 1019.86
1013.64 1014.57 1014.42 1014.18 1014.23 1014.34 1014.55 1014.51 1014.52 1014.78 1015.00 1014.93 1015.11 1015.57 1016.27 1016.80 1017.20 1017.39 1017.75 1017.85 1017.76 1017.93 1018.04 1017.95 1017.94 1018.17 1018.22 1018.25 1018.35 1018.59 1018.80 1018.96 1019.11 1019.32 1019.47 1019.60 1019.74 1019.80 1019.90 1020.01 1020.00 1020.00 1019.92 1020.09 1020.08 1020.07 1020.08 1020.06 1020.07
1013.80 1014.37 1014.40 1014.14 1014.39 1014.20 1014.58 1014.41 1014.81 1014.84 1014.36 1013.85 1014.57 1015.09 1016.03 1016.59 1016.98 1017.20 1017.46 1017.65 1017.75 1017.97 1017.88 1017.89 1017.99 1018.18 1018.23 1018.30 1018.40 1018.50 1018.67 1018.87 1019.08 1019.21 1019.30 1019.52 1019.70 1019.77 1019.80 1019.85 1019.87 1019.91 1019.94 1019.96 1020.00 1020.06 1020.01 1020.00 1020.03
1013.82 1014.13 1014.02 1014.05 1014.09 1014.11 1014.21 1014.56 1014.55 1014.54 1013.99 1014.10 1014.71 1015.63 1016.06 1016.36 1016.60 1016.82 1016.87 1017.21 1017.71 1017.95 1017.90 1017.91 1018.02 1018.16 1018.19 1018.34 1018.38 1018.48 1018.63 1018.74 1018.92 1019.16 1019.33 1019.52 1019.71 1019.77 1019.79 1019.82 1019.92 1019.97 1019.93 1019.90 1019.94 1020.01 1020.02 1019.97 1019.86
1013.76 1013.93 1014.23 1014.20 1014.18 1014.26 1014.04 1014.55 1014.52 1014.13 1014.01 1014.43 1015.05 1015.45 1015.98 1016.32 1016.35 1016.71 1017.13 1017.36 1017.56 1017.70 1017.89 1018.02 1018.15 1018.31 1018.52 1018.57 1018.47 1018.50 1018.60 1018.71 1018.95 1019.10 1019.15 1019.23 1019.46 1019.62 1019.74 1019.76 1019.85 1019.87 1019.80 1019.82 1019.88 1019.97 1020.07 1020.11 1019.96
1014.06 1014.29 1014.55 1014.68 1014.68 1014.79 1014.62 1014.86 1014.70 1014.25 1014.40 1014.77 1015.28 1015.70 1015.89 1015.99 1016.29 1016.25 1016.30 1016.85 1017.05 1017.35 1017.71 1018.03 1018.28 1018.48 1018.57 1018.53 1018.46 1018.53 1018.53 1018.60 1018.85 1018.97 1019.03 1019.13 1019.24 1019.35 1019.41 1019.59 1019.69 1019.57 1019.61 1019.77 1019.92 1019.98 1020.09 1020.17 1020.09
1015.32 1015.53 1016.14 1015.47 1015.24 1015.35 1015.18 1015.41 1014.91 1014.62 1014.97 1015.30 1015.40 1015.94 1016.04 1016.00 1015.99 1016.26 1016.49 1016.77 1017.06 1017.38 1017.76 1018.03 1018.24 1018.48 1018.54 1018.52 1018.57 1018.74 1018.85 1018.89 1018.87 1018.81 1018.88 1018.99 1019.03 1019.02 1019.06 1019.18 1019.26 1019.26 1019.46 1019.56 1019.80 1020.03 1020.15 1020.18 1020.13
1016.91 1017.01 1016.94 1016.41 1016.17 1016.26 1016.33 1016.18 1015.10 1015.05 1015.37 1015.43 1015.66 1016.03 1016.20 1016.23 1016.23 1016.28 1016.32 1016.62 1016.94 1017.41 1017.82 1018.11 1018.35 1018.35 1018.46 1018.38 1018.60 1018.81 1018.89 1018.93 1018.72 1018.71 1018.68 1018.64 1018.73 1018.75 1018.87 1018.78 1018.65 1018.78 1019.07 1019.18 1019.38 1019.51 1019.58 1019.85 1019.92
1017.54 1017.55 1017.23 1017.07 1016.77 1016.75 1016.94 1016.67 1016.09 1015.56 1015.68 1015.91 1015.99 1015.95 1016.31 1016.61 1016.59 1016.43 1016.24 1016.49 1016.80 1017.18 1017.57 1018.08 1018.29 1018.25 1018.37 1018.46 1018.71 1018.87 1018.95 1018.81 1018.63 1018.32 1018.22 1018.13 1018.17 1018.19 1018.42 1018.40 1018.32 1018.47 1018.83 1018.95 1019.06 1019.09 1019.15 1019.21 1019.30
1017.29 1017.55 1017.54 1017.35 1017.18 1017.33 1017.30 1017.21 1016.67 1016.27 1016.13 1016.48 1016.66 1016.53 1016.55 1016.69 1016.82 1016.81 1016.45 1016.56 1016.95 1017.36 1017.70 1017.80 1017.98 1017.97 1018.27 1018.64 1018.99 1019.07 1019.06 1018.55 1018.28 1017.86 1017.51 1017.51 1017.56 1017.64 1017.81 1017.87 1017.94 1018.09 1018.30 1018.14 1018.32 1018.60 1018.88 1018.99 1019.00
1017.34 1017.51 1017.78 1017.54 1017.48 1017.67 1017.56 1017.47 1017.16 1016.90 1017.17 1017.27 1017.26 1017.07 1016.88 1016.91 1016.92 1016.86 1016.89 1016.91 1017.09 1017.22 1017.43 1017.63 1017.67 1017.78 1018.00 1018.44 1018.65 1018.76 1018.97 1018.72 1018.54 1017.82 1017.36 1017.16 1017.09 1016.97 1017.08 1017.14 1017.16 1017.34 1017.59 1017.57 1017.60 1017.81 1018.23 1018.32 1018.48
1017.49 1017.72 1017.96 1018.34 1018.00 1017.89 1017.98 1017.96 1017.69 1017.32 1017.32 1017.35 1017.30 1017.21 1017.17 1017.26 1017.09 1017.05 1017.16 1017.16 1017.20 1017.35 1017.44 1017.59 1017.79 1018.16 1018.42 1018.66 1018.86 1018.92 1018.87 1018.65 1018.51 1017.90 1017.57 1016.96 1016.81 1016.66 1016.61 1016.35 1016.30 1016.31 1016.48 1016.49 1016.43 1016.87 1017.20 1017.53 1017.84
1017.80 1017.67 1018.16 1018.48 1018.95 1019.00 1018.80 1018.98 1018.44 1018.20 1018.00 1017.97 1017.81 1017.88 1018.04 1017.85 1017.63 1017.38 1017.37 1017.45 1017.59 1017.94 1017.95 1018.06 1018.25 1018.46 1018.71 1018.98 1019.07 1019.28 1019.31 1019.27 1018.37 1017.93 1017.41 1016.84 1016.42 1016.16 1015.99 1015.83 1015.64 1015.70 1015.89 1015.95 1015.85 1016.08 1016.51 1016.95 1017.62
1017.87 1017.97 1018.41 1018.81 1019.38 1019.66 1019.70 1019.69 1019.24 1018.57 1018.61 1018.63 1018.72 1018.61 1018.32 1018.02 1018.03 1018.31 1018.36 1018.54 1018.46 1018.67 1018.88 1018.84 1018.90 1019.08 1019.10 1019.08 1018.95 1018.88 1018.83 1018.65 1018.16 1017.70 1017.16 1016.66 1016.21 1015.91 1015.59 1015.29 1015.09 1015.23 1015.34 1015.49 1015.78 1016.03 1016.37 1016.84 1017.36
1018.04 1018.47 1019.12 1019.82 1020.27 1020.71 1020.67 1020.49 1020.05 1019.34 1019.28 1019.36 1019.24 1018.99 1018.95 1018.85 1018.84 1018.88 1019.05 1019.11 1019.30 1019.37 1019.46 1019.33 1019.05 1018.84 1018.61 1018.60 1018.67 1018.91 1019.01 1018.58 1018.08 1017.55 1017.18 1016.47 1016.05 1015.82 1015.47 1014.92 1014.82 1014.95 1015.19 1015.47 1015.91 1015.94 1016.37 1016.81 1017.43
1018.70 1019.64 1020.61 1021.58 1021.67 1021.95 1021.17 1020.80 1020.09 1019.66 1019.63 1019.66 1019.61 1019.60 1019.61 1019.44 1019.39 1019.70 1019.77 1019.82 1019.89 1019.75 1019.59 1019.45 1019.37 1019.28 1019.30 1019.19 1018.90 1018.66 1018.51 1018.35 1017.88 1017.12 1016.60 1016.27 1015.84 1015.73 1015.74 1015.33 1015.34 1015.55 1015.88 1016.27 1016.54 1016.65 1016.84 1017.33 1017.61
1019.91 1020.77 1022.12 1023.03 1023.60 1023.24 1021.70 1020.92 1020.07 1019.86 1019.93 1020.06 1020.12 1020.44 1020.60 1020.50 1020.50 1020.55 1020.56 1020.39 1020.36 1020.16 1019.99 1019.96 1019.86 1019.75 1019.41 1019.19 1018.96 1018.58 1018.22 1018.08 1017.69 1017.06 1016.54 1016.29 1016.13 1016.22 1016.05 1015.88 1015.65 1015.96 1016.17 1016.55 1016.82 1017.07 1017.28 1017.40 1017.60
1020.38 1021.43 1022.38 1023.66 1024.78 1024.46 1022.85 1021.48 1020.37 1020.31 1020.50 1020.88 1021.19 1021.23 1021.35 1021.50 1021.36 1021.17 1020.90 1020.59 1020.22 1020.13 1020.19 1020.19 1020.04 1019.78 1019.36 1019.12 1019.07 1018.76 1018.30 1017.72 1017.14 1016.41 1016.18 1016.02 1016.09 1016.32 1016.20 1016.39 1016.23 1016.16 1016.29 1016.32 1016.60 1017.01 1017.39 1017.58 1017.88
1020.59 1021.78 1022.82 1024.12 1025.39 1025.43 1023.90 1022.42 1021.34 1021.33 1021.61 1021.72 1022.09 1022.10 1022.01 1021.96 1021.74 1021.42 1021.02 1020.76 1020.59 1020.66 1020.67 1020.54 1020.33 1020.19 1019.67 1019.27 1018.67 1018.29 1018.18 1017.63 1017.07 1016.45 1016.26 1016.21 1016.10 1016.18 1016.25 1016.31 1016.21 1015.94 1015.90 1015.92 1016.31 1016.79 1017.05 1017.18 1017.20
1021.69 1022.47 1023.68 1024.72 1025.78 1026.14 1025.42 1023.33 1021.53 1021.66 1021.65 1021.79 1022.00 1022.27 1022.32 1022.17 1021.80 1021.40 1020.85 1020.68 1020.41 1020.36 1020.32 1020.12 1019.77 1019.43 1018.96 1018.70 1018.44 1018.29 1017.84 1017.22 1016.65 1016.54 1016.60 1016.56 1016.63 1016.55 1016.25 1016.31 1016.35 1015.97 1015.76 1016.04 1016.22 1016.52 1016.66 1016.75 1016.77
1022.38 1023.28 1024.16 1025.51 1026.41 1026.52 1026.05 1023.21 1021.51 1021.34 1021.55 1021.80 1022.12 1022.25 1022.11 1021.84 1021.48 1021.10 1020.74 1020.58 1020.44 1020.09 1019.76 1019.52 1019.30 1019.15 1018.93 1018.85 1018.55 1018.18 1017.69 1017.21 1016.92 1016.57 1016.61 1016.86 1017.09 1016.85 1016.88 1016.52 1016.48 1016.41 1016.43 1016.33 1016.34 1016.46 1016.57 1016.69 1016.74
Wind_Speed
4 3 2 5 6 6 3 0 3 2 3 4 1 6 7 3 3 4 1 5 7 4 2 2 3 7 7 10 11 11 9 10 10 8 6 6 8 9 9 12 12 9 6 6 3 1 3 3 3
3 2 5 3 7 6 3 3 5 2 5 5 4 4 6 4 2 4 4 5 5 5 2 3 5 6 8 10 10 12 12 11 9 7 5 5 8 8 9 8 5 2 3 3 2 2 3 2 2
1 4 5 6 4 5 5 2 4 3 4 5 4 4 3 2 2 4 5 9 7 6 5 3 6 6 9 9 11 10 11 10 9 7 6 6 7 7 6 4 4 4 2 1 2 2 1 0 3
2 5 6 8 4 4 4 4 3 3 2 5 2 6 3 1 4 5 8 9 7 5 5 5 6 7 8 8 9 8 9 9 9 6 6 6 6 8 6 3 3 4 2 3 1 3 2 3 4
5 4 7 6 3 3 2 6 7 5 3 2 2 2 3 3 6 10 7 6 6 6 4 5 5 8 8 7 8 8 8 9 7 6 6 6 6 7 5 2 1 4 7 7 4 4 4 7 8
5 4 7 4 1 2 3 1 4 4 4 5 5 5 1 1 7 7 7 7 6 7 6 5 5 5 6 7 8 7 9 7 6 7 7 7 7 7 7 7 7 7 6 5 5 5 2 6 7
8 5 4 4 2 2 2 2 2 4 4 2 7 5 1 4 5 6 5 6 6 5 5 3 3 3 6 7 5 5 5 6 6 7 8 7 8 8 9 10 9 10 10 10 7 7 7 9 10
7 6 4 3 2 2 2 1 3 2 3 3 2 5 5 6 8 7 5 6 5 4 3 3 2 2 4 3 3 3 2 3 4 6 6 6 7 7 7 8 9 10 11 11 11 10 10 10 10
3 7 2 2 2 2 4 2 2 2 4 2 4 5 3 10 9 7 4 2 2 2 3 3 3 1 1 1 1 2 1 2 3 5 5 4 3 3 3 5 8 9 8 7 7 8 8 9 9
7 6 3 3 3 0 2 1 3 3 2 2 1 2 4 9 9 9 7 6 4 4 4 4 4 3 2 1 1 3 2 2 2 3 4 2 2 2 2 2 4 4 5 5 5 7 7 6 4
2 4 2 2 2 1 3 3 1 7 1 7 8 6 6 5 6 9 7 7 8 6 3 6 5 4 4 4 2 1 2 1 1 2 4 3 2 1 1 1 2 2 4 3 3 3 3 4 3
7 3 3 1 3 4 2 2 1 4 7 7 7 12 8 9 9 9 9 8 7 7 7 5 5 4 4 3 3 3 2 2 2 3 4 3 2 3 3 3 2 1 1 0 1 1 2 2 2
4 2 3 1 6 4 2 2 2 8 8 1 9 7 10 10 8 6 7 4 5 7 6 7 5 5 4 4 3 3 3 3 3 3 3 3 3 4 3 3 2 2 2 1 1 1 0 2 3
1 1 2 3 0 0 1 2 2 5 2 3 7 11 10 10 12 5 6 8 8 6 8 6 6 6 4 4 3 3 3 3 3 3 4 4 4 4 4 3 3 3 3 2 2 1 1 0 2
2 6 6 7 5 3 1 6 6 5 2 5 8 7 9 11 7 12 11 10 10 7 6 8 6 4 5 4 4 3 3 3 4 4 5 5 5 5 5 4 4 4 4 4 2 1 0 0 1
7 7 5 5 7 2 3 9 10 3 0 8 9 8 8 10 7 6 4 6 7 5 8 6 4 6 6 4 3 2 3 3 3 4 4 6 6 6 5 4 5 4 4 4 3 3 3 2 2
8 1 2 8 4 5 4 9 8 6 5 11 7 7 7 6 6 4 5 6 6 5 6 6 5 8 6 4 2 3 4 4 4 4 4 6 6 6 5 5 5 6 5 5 4 4 4 4 4
1 2 3 3 6 6 4 8 9 8 6 8 7 5 5 4 6 6 7 5 7 7 6 5 6 6 5 1 1 3 3 4 4 5 6 7 6 7 6 5 6 5 4 4 4 5 4 4 4
1 2 3 3 2 6 5 6 10 9 8 10 8 6 4 4 3 3 1 5 6 4 6 8 7 7 3 1 2 2 5 4 4 5 7 7 7 8 8 6 5 6 7 9 8 5 6 5 4
1 2 4 5 3 1 6 7 6 7 5 5 6 7 5 4 3 4 4 4 5 6 8 7 8 6 5 1 1 1 2 3 4 4 6 7 7 8 9 9 9 9 8 7 8 7 4 4 5
4 2 2 5 7 2 5 5 7 4 5 7 7 4 4 5 5 4 3 4 4 7 8 5 4 4 2 3 2 3 2 3 3 4 4 6 7 9 8 10 10 10 9 10 12 10 9 7 4
3 1 3 6 3 1 4 3 5 6 5 6 5 6 7 7 3 3 5 5 5 4 5 5 5 5 5 4 2 2 2 4 4 4 4 9 7 8 9 10 11 11 8 9 8 6 5 4 5
7 3 2 2 3 3 8 5 7 5 4 5 8 6 4 6 6 7 7 7 6 7 6 7 6 6 4 3 2 3 5 4 5 6 8 8 9 7 8 9 10 8 5 3 5 5 5 3 3
5 4 5 4 2 4 1 4 6 3 3 4 3 5 6 8 7 7 7 7 7 8 7 5 6 5 7 8 7 5 7 8 7 7 6 6 5 5 6 6 2 3 4 5 5 6 7 5 5
9 6 4 5 6 4 3 1 5 4 6 5 7 9 10 8 7 7 8 8 7 8 8 8 9 9 9 9 9 8 8 7 8 9 7 8 4 2 4 6 7 7 7 7 5 6 5 4 4
3 4 5 2 1 5 4 3 5 3 9 5 8 7 8 10 8 8 7 7 6 7 8 8 8 8 10 9 9 7 7 6 8 9 7 5 1 3 4 6 7 7 6 5 4 3 3 3 3
1 5 2 6 2 3 4 5 2 4 7 8 8 8 9 8 7 7 5 4 7 9 8 7 8 8 7 7 6 7 7 7 9 10 5 2 4 4 5 5 5 5 5 5 4 3 0 1 4
5 3 3 4 2 4 6 6 4 6 8 7 5 7 8 6 7 6 7 7 6 7 6 8 7 7 7 7 6 6 9 8 8 6 5 4 4 4 5 4 4 5 4 5 4 4 4 6 5
5 3 6 4 4 4 3 7 4 5 2 2 3 4 5 6 7 7 7 7 6 5 6 7 6 7 7 7 6 7 9 10 7 5 3 2 2 3 2 3 3 2 4 2 2 4 5 4 4
3 3 4 5 3 1 3 8 2 7 3 3 3 6 6 6 8 8 8 8 6 6 7 7 7 7 6 6 7 8 9 8 6 3 2 2 3 3 4 5 6 5 4 4 3 3 4 4 5
Wind_Direction
350 358 82 39 60 66 75 342 319 47 63 312 15 93 112 54 91 181 20 116 105 103 76 80 84 73 56 59 68 74 68 94 99 114 122 118 95 87 91 79 61 43 51 66 59 177 174 186 151
354 96 47 66 83 68 326 287 141 188 139 158 83 60 52 71 82 119 75 96 107 121 139 164 118 82 71 62 77 73 68 64 87 101 106 125 113 115 108 96 82 322 39 27 356 328 297 214 149
3 41 77 86 103 126 147 30 128 114 129 16 77 62 101 106 87 144 124 141 137 140 154 153 120 122 87 74 61 65 68 61 67 87 98 100 101 101 105 73 29 325 191 88 10 320 321 11 232
71 16 37 79 67 9 129 123 105 101 321 49 77 56 62 159 167 160 142 139 138 159 156 155 138 113 100 105 103 93 90 87 76 74 80 79 85 106 147 172 218 204 181 201 339 322 329 289 318
42 56 61 67 26 2 46 157 167 173 150 82 103 172 38 29 116 129 140 143 147 154 165 165 152 148 142 127 109 93 86 77 86 81 80 82 72 74 77 114 163 46 33 11 1 337 338 338 6
45 90 62 85 41 19 19 11 147 153 151 143 81 91 101 96 126 167 155 167 169 159 168 172 168 135 108 86 76 71 65 65 59 55 58 62 62 64 63 59 58 48 48 37 22 8 8 353 350
106 77 128 126 139 83 179 321 93 120 104 132 150 108 190 177 198 156 156 138 163 167 150 140 84 75 70 66 78 80 86 89 79 59 53 51 52 50 47 47 59 58 59 56 57 51 46 54 48
105 90 86 25 95 112 312 34 132 77 68 124 137 168 179 209 172 131 130 144 160 140 127 145 151 80 74 60 49 75 82 93 96 90 85 73 60 61 65 63 71 69 64 59 57 51 43 47 47
102 62 73 136 99 291 337 106 321 51 111 189 176 163 237 147 119 118 119 121 117 168 171 179 187 156 106 124 85 61 61 95 106 116 130 104 106 93 77 108 103 95 88 78 68 56 38 33 25
79 87 163 174 169 84 359 86 165 118 8 19 55 84 91 118 149 158 170 184 197 203 218 204 209 208 221 251 181 120 96 101 126 149 157 153 144 147 130 137 116 106 103 79 56 46 43 40 31
108 134 175 41 125 121 317 327 167 126 261 221 199 150 144 144 164 176 184 191 202 199 210 205 211 227 218 232 201 183 161 141 153 169 184 189 180 178 142 240 341 358 16 26 36 32 37 26 24
76 79 149 205 184 140 233 321 278 202 230 214 201 161 156 166 179 184 190 198 186 197 202 205 209 211 225 235 215 202 182 170 206 222 198 185 193 203 212 216 229 212 239 110 78 358 333 353 344
86 141 169 226 164 223 215 235 265 258 271 230 134 151 179 183 187 201 204 195 165 198 204 208 192 204 221 219 202 189 200 195 198 199 199 189 207 214 218 234 221 226 208 211 199 175 290 339 336
315 53 334 5 306 28 151 285 27 295 327 180 167 184 198 196 197 190 204 204 199 198 202 202 202 207 194 200 192 205 199 197 193 205 213 215 211 206 207 217 222 220 203 195 209 204 140 344 343
63 42 17 15 323 33 143 327 236 246 25 249 217 208 211 217 196 205 199 202 195 201 183 197 200 203 210 204 199 206 212 186 202 216 224 226 218 211 199 200 212 219 204 190 186 191 132 218 270
41 51 25 334 356 31 75 275 277 309 106 267 246 220 222 235 232 268 263 216 199 161 180 185 179 202 218 219 224 241 253 242 238 229 222 229 231 219 205 200 211 205 201 193 191 189 199 224 234
10 61 359 320 74 2 59 277 279 324 314 274 269 238 236 259 287 305 244 211 172 162 167 198 207 217 219 227 234 257 268 253 243 245 234 232 232 226 215 212 215 192 196 199 196 204 182 192 211
321 346 311 266 317 352 318 274 300 306 298 296 301 264 202 240 280 300 281 205 173 176 186 190 214 228 218 212 302 287 284 264 245 233 226 225 223 221 214 222 217 197 198 211 205 204 207 200 204
137 223 259 252 253 353 323 298 321 344 39 23 19 47 123 127 326 329 155 160 142 169 183 201 210 222 169 164 226 254 242 261 260 246 240 233 229 227 221 227 218 203 206 213 202 184 202 227 197
58 354 318 290 268 149 354 324 325 8 32 42 52 49 67 99 61 59 104 138 169 179 202 208 226 221 214 160 284 272 326 296 285 280 273 248 238 229 222 223 224 211 216 216 201 186 190 220 180
334 203 248 241 330 54 343 349 8 5 49 35 23 12 41 61 80 68 91 164 186 199 209 231 289 318 299 265 316 333 305 296 304 302 289 274 255 257 234 237 233 225 212 219 214 203 190 211 193
309 163 322 293 49 237 30 251 352 335 30 22 345 4 14 359 332 236 219 218 231 317 338 337 346 340 345 345 336 312 265 277 260 271 272 291 280 262 254 248 241 236 230 233 219 199 197 146 173
243 349 237 209 151 94 344 71 291 357 18 7 14 10 332 288 277 317 322 346 24 21 23 22 33 69 62 48 16 338 309 268 271 279 282 284 284 270 266 258 256 242 226 211 171 137 139 133 143
299 31 44 45 87 49 326 111 308 324 330 32 351 325 305 319 315 337 352 19 31 30 34 28 27 18 15 5 352 308 290 306 311 300 288 279 265 277 289 273 233 108 95 95 101 94 84 78 65
25 41 353 4 11 211 260 86 207 329 84 87 348 344 353 356 28 28 38 35 33 22 10 7 10 355 355 348 346 340 329 312 298 300 293 297 306 355 11 77 83 82 77 74 71 77 87 96 103
5 99 135 207 312 284 318 189 199 156 76 29 352 10 20 19 23 39 33 34 20 4 359 358 357 338 343 339 331 324 322 316 305 300 303 291 252 136 126 104 98 100 101 103 95 77 50 65 37
336 48 151 105 348 35 276 313 292 178 25 26 35 23 13 19 20 29 15 5 4 2 349 352 338 315 315 305 302 310 295 295 307 306 286 217 148 147 130 115 113 121 130 114 100 100 88 159 240
97 137 41 10 62 289 307 293 244 42 343 3 22 14 359 353 349 335 331 334 346 336 314 311 308 293 290 287 300 314 305 299 293 293 271 201 166 135 134 142 150 140 131 138 153 195 213 219 224
357 27 57 107 123 172 289 267 203 154 348 39 30 341 330 309 296 288 282 275 262 272 274 269 284 294 313 326 315 307 305 305 305 302 273 168 150 176 188 276 287 4 22 338 220 239 255 263 278
110 114 97 108 288 210 164 268 208 134 196 154 360 333 315 294 279 282 279 276 279 301 315 320 314 318 307 303 307 305 305 313 318 345 83 47 316 349 325 25 5 358 335 334 317 309 314 301 290